Time,TemperatureF,DewpointF,PressureIn,WindDirection,WindDirectionDegrees,WindSpeedMPH,WindSpeedGustMPH,Humidity,HourlyPrecipIn,Conditions,Clouds,dailyrainin,SoftwareType,DateUTC
2013-03-09 00:00:00,32.2,23.1,30.06,NNE,20,0.0,0.0,69,0.00,CLR,,0.00,WeatherDisplay:10.37,2013-03-09 05:00:00,
2013-03-09 00:01:00,32.2,23.1,30.06,NNE,20,0.0,0.0,69,0.00,CLR,,0.00,WeatherDisplay:10.37,2013-03-09 05:01:00,
2013-03-09 00:06:00,32.2,23.1,30.06,NNE,20,0.0,0.0,69,0.00,CLR,,0.00,WeatherDisplay:10.37,2013-03-09 05:06:00,
2013-03-09 00:11:00,31.8,23.1,30.06,NNE,20,0.0,0.0,70,0.00,CLR,,0.00,WeatherDisplay:10.37,2013-03-09 05:11:00,
2013-03-09 00:16:00,31.8,23.1,30.07,NNE,20,0.0,0.0,70,0.00,CLR,,0.00,WeatherDisplay:10.37,2013-03-09 05:16:00,
2013-03-09 00:21:00,31.6,22.6,30.07,NNE,20,0.0,0.0,69,0.00,CLR,,0.00,WeatherDisplay:10.37,2013-03-09 05:21:00,
2013-03-09 00:26:00,31.6,23.0,30.07,NNE,20,0.0,0.0,70,0.00,CLR,,0.00,WeatherDisplay:10.37,2013-03-09 05:26:00,
2013-03-09 00:31:00,31.6,23.0,30.07,NNE,20,0.0,0.0,70,0.00,CLR,,0.00,WeatherDisplay:10.37,2013-03-09 05:31:00,
2013-03-09 00:36:00,31.6,23.0,30.07,NNE,20,0.0,0.0,70,0.00,CLR,,0.00,WeatherDisplay:10.37,2013-03-09 05:36:00,
2013-03-09 00:41:00,31.6,23.0,30.07,NNE,20,0.0,0.0,70,0.00,CLR,,0.00,WeatherDisplay:10.37,2013-03-09 05:41:00,
2013-03-09 00:46:00,31.8,23.1,30.07,NNE,20,0.0,0.0,70,0.00,CLR,,0.00,WeatherDisplay:10.37,2013-03-09 05:46:00,
2013-03-09 00:51:00,31.8,23.1,30.07,NNE,20,0.0,0.0,70,0.00,CLR,,0.00,WeatherDisplay:10.37,2013-03-09 05:51:00,
2013-03-09 00:56:00,31.6,22.6,30.07,NNE,20,0.0,0.0,69,0.00,CLR,,0.00,WeatherDisplay:10.37,2013-03-09 05:56:00,
2013-03-09 01:01:00,31.6,22.6,30.07,NNE,20,0.0,0.0,69,0.00,CLR,,0.00,WeatherDisplay:10.37,2013-03-09 06:01:00,
2013-03-09 01:06:00,31.6,22.6,30.07,NNE,20,0.0,0.0,69,0.00,CLR,,0.00,WeatherDisplay:10.37,2013-03-09 06:06:00,
2013-03-09 01:11:00,30.9,22.3,30.08,NNE,20,0.0,0.0,70,0.00,CLR,,0.00,WeatherDisplay:10.37,2013-03-09 06:11:00,
2013-03-09 01:16:00,30.7,22.1,30.08,NNE,20,0.0,0.0,70,0.00,CLR,,0.00,WeatherDisplay:10.37,2013-03-09 06:16:00,
2013-03-09 01:21:00,30.4,21.8,30.08,NNE,20,0.0,0.0,70,0.00,CLR,,0.00,WeatherDisplay:10.37,2013-03-09 06:21:00,
2013-03-09 01:26:00,30.2,21.9,30.08,NNE,20,0.0,0.0,71,0.00,CLR,,0.00,WeatherDisplay:10.37,2013-03-09 06:26:00,
2013-03-09 01:31:00,30.4,22.1,30.08,NNE,20,0.0,0.0,71,0.00,CLR,,0.00,WeatherDisplay:10.37,2013-03-09 06:31:00,
2013-03-09 01:36:00,30.4,22.1,30.08,NNE,20,0.0,0.0,71,0.00,CLR,,0.00,WeatherDisplay:10.37,2013-03-09 06:36:00,
2013-03-09 01:41:00,30.6,22.3,30.08,WNW,290,0.0,4.6,71,0.00,CLR,,0.00,WeatherDisplay:10.37,2013-03-09 06:41:00,
2013-03-09 01:46:00,30.6,22.3,30.08,WNW,290,4.6,4.6,71,0.00,CLR,,0.00,WeatherDisplay:10.37,2013-03-09 06:46:00,
2013-03-09 01:51:00,30.7,22.4,30.08,WNW,290,4.6,4.6,71,0.00,CLR,,0.00,WeatherDisplay:10.37,2013-03-09 06:51:00,
2013-03-09 01:56:00,30.7,22.4,30.08,WNW,290,4.6,4.6,71,0.00,CLR,,0.00,WeatherDisplay:10.37,2013-03-09 06:56:00,
2013-03-09 02:01:00,31.1,22.5,30.08,WNW,290,4.6,0.0,70,0.00,CLR,,0.00,WeatherDisplay:10.37,2013-03-09 07:01:00,
2013-03-09 02:06:00,31.3,22.6,30.08,WNW,290,0.0,0.0,70,0.00,CLR,,0.00,WeatherDisplay:10.37,2013-03-09 07:06:00,
2013-03-09 02:11:00,31.3,22.6,30.07,WNW,290,0.0,0.0,70,0.00,CLR,,0.00,WeatherDisplay:10.37,2013-03-09 07:11:00,
2013-03-09 02:16:00,31.6,23.0,30.07,WNW,290,0.0,0.0,70,0.00,CLR,,0.00,WeatherDisplay:10.37,2013-03-09 07:16:00,
2013-03-09 02:21:00,31.6,23.0,30.07,WNW,290,0.0,0.0,70,0.00,CLR,,0.00,WeatherDisplay:10.37,2013-03-09 07:21:00,
2013-03-09 02:26:00,31.6,23.0,30.07,WNW,290,0.0,0.0,70,0.00,CLR,,0.00,WeatherDisplay:10.37,2013-03-09 07:26:00,
2013-03-09 02:31:00,31.6,23.0,30.07,WNW,290,0.0,0.0,70,0.00,CLR,,0.00,WeatherDisplay:10.37,2013-03-09 07:31:00,
2013-03-09 02:36:00,31.6,23.0,30.07,WNW,290,0.0,0.0,70,0.00,CLR,,0.00,WeatherDisplay:10.37,2013-03-09 07:36:00,
2013-03-09 02:41:00,31.3,22.6,30.07,WNW,290,0.0,0.0,70,0.00,CLR,,0.00,WeatherDisplay:10.37,2013-03-09 07:41:00,
2013-03-09 02:46:00,31.3,22.6,30.07,WNW,290,0.0,0.0,70,0.00,CLR,,0.00,WeatherDisplay:10.37,2013-03-09 07:46:00,
2013-03-09 02:51:00,31.1,22.5,30.07,WNW,290,0.0,0.0,70,0.00,CLR,,0.00,WeatherDisplay:10.37,2013-03-09 07:51:00,
2013-03-09 02:56:00,30.9,22.3,30.06,WNW,290,0.0,0.0,70,0.00,CLR,,0.00,WeatherDisplay:10.37,2013-03-09 07:56:00,
2013-03-09 03:01:00,30.9,22.3,30.06,WNW,290,0.0,0.0,70,0.00,CLR,,0.00,WeatherDisplay:10.37,2013-03-09 08:01:00,
2013-03-09 03:06:00,30.9,22.3,30.06,WNW,290,0.0,0.0,70,0.00,CLR,,0.00,WeatherDisplay:10.37,2013-03-09 08:06:00,
2013-03-09 03:11:00,30.7,22.1,30.05,WNW,290,0.0,0.0,70,0.00,CLR,,0.00,WeatherDisplay:10.37,2013-03-09 08:11:00,
2013-03-09 03:16:00,30.9,22.3,30.06,WNW,290,0.0,0.0,70,0.00,CLR,,0.00,WeatherDisplay:10.37,2013-03-09 08:16:00,
2013-03-09 03:21:00,30.9,22.3,30.06,WNW,290,0.0,0.0,70,0.00,CLR,,0.00,WeatherDisplay:10.37,2013-03-09 08:21:00,
2013-03-09 03:26:00,30.7,22.1,30.06,WNW,290,0.0,0.0,70,0.00,CLR,,0.00,WeatherDisplay:10.37,2013-03-09 08:26:00,
2013-03-09 03:31:00,30.7,22.1,30.06,WNW,290,0.0,0.0,70,0.00,CLR,,0.00,WeatherDisplay:10.37,2013-03-09 08:31:00,
2013-03-09 03:36:00,30.7,22.4,30.06,WNW,290,0.0,0.0,71,0.00,CLR,,0.00,WeatherDisplay:10.37,2013-03-09 08:36:00,
2013-03-09 03:41:00,30.6,22.3,30.06,WNW,290,0.0,0.0,71,0.00,CLR,,0.00,WeatherDisplay:10.37,2013-03-09 08:41:00,
2013-03-09 03:46:00,30.6,22.3,30.06,WNW,290,0.0,0.0,71,0.00,CLR,,0.00,WeatherDisplay:10.37,2013-03-09 08:46:00,
2013-03-09 03:51:00,30.7,22.4,30.06,WNW,290,0.0,0.0,71,0.00,CLR,,0.00,WeatherDisplay:10.37,2013-03-09 08:51:00,
2013-03-09 03:56:00,30.7,22.4,30.06,WNW,290,0.0,0.0,71,0.00,CLR,,0.00,WeatherDisplay:10.37,2013-03-09 08:56:00,
2013-03-09 04:01:00,30.7,22.4,30.06,WNW,290,0.0,0.0,71,0.00,CLR,,0.00,WeatherDisplay:10.37,2013-03-09 09:01:00,
2013-03-09 04:06:00,30.6,22.3,30.06,WNW,290,0.0,0.0,71,0.00,CLR,,0.00,WeatherDisplay:10.37,2013-03-09 09:06:00,
2013-03-09 04:11:00,30.0,21.8,30.06,WNW,290,0.0,0.0,71,0.00,CLR,,0.00,WeatherDisplay:10.37,2013-03-09 09:11:00,
2013-03-09 04:16:00,30.0,21.8,30.06,WNW,290,0.0,0.0,71,0.00,CLR,,0.00,WeatherDisplay:10.37,2013-03-09 09:16:00,
2013-03-09 04:21:00,29.7,21.4,30.07,WNW,290,0.0,0.0,71,0.00,CLR,,0.00,WeatherDisplay:10.37,2013-03-09 09:21:00,
2013-03-09 04:26:00,29.3,21.1,30.06,WNW,290,0.0,0.0,71,0.00,CLR,,0.00,WeatherDisplay:10.37,2013-03-09 09:26:00,
2013-03-09 04:31:00,29.1,20.9,30.06,WNW,290,0.0,0.0,71,0.00,CLR,,0.00,WeatherDisplay:10.37,2013-03-09 09:31:00,
2013-03-09 04:36:00,28.9,21.0,30.06,WNW,290,0.0,0.0,72,0.00,CLR,,0.00,WeatherDisplay:10.37,2013-03-09 09:36:00,
2013-03-09 04:41:00,28.8,20.9,30.06,WNW,290,0.0,0.0,72,0.00,CLR,,0.00,WeatherDisplay:10.37,2013-03-09 09:41:00,
2013-03-09 04:46:00,28.6,20.7,30.06,WNW,290,0.0,0.0,72,0.00,CLR,,0.00,WeatherDisplay:10.37,2013-03-09 09:46:00,
2013-03-09 04:51:00,28.4,20.5,30.06,WNW,290,0.0,0.0,72,0.00,CLR,,0.00,WeatherDisplay:10.37,2013-03-09 09:51:00,
2013-03-09 04:56:00,28.4,20.5,30.06,WNW,290,0.0,0.0,72,0.00,CLR,,0.00,WeatherDisplay:10.37,2013-03-09 09:56:00,
2013-03-09 05:01:00,28.6,20.7,30.07,WNW,290,0.0,0.0,72,0.00,CLR,,0.00,WeatherDisplay:10.37,2013-03-09 10:01:00,
2013-03-09 05:06:00,28.6,20.7,30.07,WNW,290,0.0,0.0,72,0.00,CLR,,0.00,WeatherDisplay:10.37,2013-03-09 10:06:00,
2013-03-09 05:11:00,28.6,20.7,30.07,WNW,290,0.0,0.0,72,0.00,CLR,,0.00,WeatherDisplay:10.37,2013-03-09 10:11:00,
2013-03-09 05:16:00,28.6,20.7,30.07,WNW,290,0.0,0.0,72,0.00,CLR,,0.00,WeatherDisplay:10.37,2013-03-09 10:16:00,
2013-03-09 05:21:00,28.6,20.7,30.07,WNW,290,0.0,0.0,72,0.00,CLR,,0.00,WeatherDisplay:10.37,2013-03-09 10:21:00,
2013-03-09 05:26:00,28.6,20.7,30.07,WNW,290,0.0,0.0,72,0.00,CLR,,0.00,WeatherDisplay:10.37,2013-03-09 10:26:00,
2013-03-09 05:31:00,28.6,20.7,30.07,WNW,290,0.0,0.0,72,0.00,CLR,,0.00,WeatherDisplay:10.37,2013-03-09 10:31:00,
2013-03-09 05:36:00,28.6,21.0,30.07,WNW,290,0.0,0.0,73,0.00,CLR,,0.00,WeatherDisplay:10.37,2013-03-09 10:36:00,
2013-03-09 05:41:00,28.6,21.0,30.07,WNW,290,0.0,0.0,73,0.00,CLR,,0.00,WeatherDisplay:10.37,2013-03-09 10:41:00,
2013-03-09 05:46:00,28.6,21.0,30.07,WNW,290,0.0,0.0,73,0.00,CLR,,0.00,WeatherDisplay:10.37,2013-03-09 10:46:00,
2013-03-09 05:51:00,28.8,21.2,30.08,WNW,290,0.0,0.0,73,0.00,CLR,,0.00,WeatherDisplay:10.37,2013-03-09 10:51:00,
2013-03-09 05:56:00,28.8,21.2,30.08,WNW,290,0.0,0.0,73,0.00,CLR,,0.00,WeatherDisplay:10.37,2013-03-09 10:56:00,
2013-03-09 06:01:00,28.8,21.2,30.08,WNW,290,0.0,0.0,73,0.00,CLR,,0.00,WeatherDisplay:10.37,2013-03-09 11:01:00,
2013-03-09 06:06:00,28.9,21.4,30.08,WNW,290,0.0,0.0,73,0.00,CLR,,0.00,WeatherDisplay:10.37,2013-03-09 11:06:00,
2013-03-09 06:11:00,28.9,21.4,30.08,WNW,290,0.0,0.0,73,0.00,CLR,,0.00,WeatherDisplay:10.37,2013-03-09 11:11:00,
2013-03-09 06:16:00,28.9,21.4,30.08,WNW,290,0.0,0.0,73,0.00,CLR,,0.00,WeatherDisplay:10.37,2013-03-09 11:16:00,
2013-03-09 06:21:00,28.8,21.2,30.08,WNW,290,0.0,0.0,73,0.00,CLR,,0.00,WeatherDisplay:10.37,2013-03-09 11:21:00,
2013-03-09 06:26:00,28.6,21.0,30.08,WNW,290,0.0,0.0,73,0.00,CLR,,0.00,WeatherDisplay:10.37,2013-03-09 11:26:00,
2013-03-09 06:31:00,28.6,21.0,30.08,WNW,290,0.0,0.0,73,0.00,CLR,,0.00,WeatherDisplay:10.37,2013-03-09 11:31:00,
2013-03-09 06:36:00,28.2,20.7,30.08,WNW,290,0.0,0.0,73,0.00,CLR,,0.00,WeatherDisplay:10.37,2013-03-09 11:36:00,
2013-03-09 06:41:00,28.2,20.7,30.09,WNW,290,0.0,0.0,73,0.00,CLR,,0.00,WeatherDisplay:10.37,2013-03-09 11:41:00,
2013-03-09 06:46:00,28.0,20.5,30.09,WNW,290,0.0,0.0,73,0.00,CLR,,0.00,WeatherDisplay:10.37,2013-03-09 11:46:00,
2013-03-09 06:51:00,27.7,20.2,30.09,WNW,290,0.0,0.0,73,0.00,CLR,,0.00,WeatherDisplay:10.37,2013-03-09 11:51:00,
2013-03-09 06:56:00,27.5,20.0,30.08,WNW,290,0.0,0.0,73,0.00,CLR,,0.00,WeatherDisplay:10.37,2013-03-09 11:56:00,
2013-03-09 07:01:00,27.3,20.1,30.08,WNW,290,0.0,0.0,74,0.00,CLR,,0.00,WeatherDisplay:10.37,2013-03-09 12:01:00,
2013-03-09 07:06:00,27.3,20.1,30.08,WNW,290,0.0,0.0,74,0.00,CLR,,0.00,WeatherDisplay:10.37,2013-03-09 12:06:00,
2013-03-09 07:11:00,27.7,20.8,30.08,WNW,290,0.0,0.0,75,0.00,CLR,,0.00,WeatherDisplay:10.37,2013-03-09 12:11:00,
2013-03-09 07:16:00,28.0,20.8,30.08,WNW,290,0.0,0.0,74,0.00,CLR,,0.00,WeatherDisplay:10.37,2013-03-09 12:16:00,
2013-03-09 07:21:00,28.2,21.0,30.08,WNW,290,0.0,0.0,74,0.00,CLR,,0.00,WeatherDisplay:10.37,2013-03-09 12:21:00,
2013-03-09 07:26:00,28.6,21.3,30.09,WNW,290,0.0,0.0,74,0.00,CLR,,0.00,WeatherDisplay:10.37,2013-03-09 12:26:00,
2013-03-09 07:31:00,28.9,21.7,30.09,WNW,290,0.0,0.0,74,0.00,CLR,,0.00,WeatherDisplay:10.37,2013-03-09 12:31:00,
2013-03-09 07:36:00,29.1,21.9,30.09,WNW,290,0.0,0.0,74,0.00,CLR,,0.00,WeatherDisplay:10.37,2013-03-09 12:36:00,
2013-03-09 07:41:00,29.3,22.0,30.09,WNW,290,0.0,0.0,74,0.00,CLR,,0.00,WeatherDisplay:10.37,2013-03-09 12:41:00,
2013-03-09 07:46:00,29.5,22.2,30.09,WNW,290,0.0,0.0,74,0.00,CLR,,0.00,WeatherDisplay:10.37,2013-03-09 12:46:00,
2013-03-09 07:51:00,29.7,22.4,30.10,WNW,290,0.0,0.0,74,0.00,CLR,,0.00,WeatherDisplay:10.37,2013-03-09 12:51:00,
2013-03-09 07:56:00,29.8,22.6,30.10,WNW,290,0.0,0.0,74,0.00,CLR,,0.00,WeatherDisplay:10.37,2013-03-09 12:56:00,
2013-03-09 08:01:00,30.0,22.4,30.10,WNW,290,0.0,0.0,73,0.00,CLR,,0.00,WeatherDisplay:10.37,2013-03-09 13:01:00,
2013-03-09 08:06:00,30.4,22.8,30.11,WNW,290,0.0,0.0,73,0.00,CLR,,0.00,WeatherDisplay:10.37,2013-03-09 13:06:00,
2013-03-09 08:11:00,30.7,23.1,30.11,WNW,290,0.0,0.0,73,0.00,CLR,,0.00,WeatherDisplay:10.37,2013-03-09 13:11:00,
2013-03-09 08:16:00,31.3,23.6,30.10,WNW,290,0.0,0.0,73,0.00,CLR,,0.00,WeatherDisplay:10.37,2013-03-09 13:16:00,
2013-03-09 08:21:00,32.2,24.2,30.11,WNW,290,0.0,0.0,72,0.00,CLR,,0.00,WeatherDisplay:10.37,2013-03-09 13:21:00,
2013-03-09 08:26:00,32.5,24.5,30.11,WNW,290,0.0,0.0,72,0.00,CLR,,0.00,WeatherDisplay:10.37,2013-03-09 13:26:00,
2013-03-09 08:31:00,33.1,24.7,30.11,WNW,290,0.0,0.0,71,0.00,CLR,,0.00,WeatherDisplay:10.37,2013-03-09 13:31:00,
2013-03-09 08:36:00,34.0,25.6,30.11,WNW,290,0.0,0.0,71,0.00,CLR,,0.00,WeatherDisplay:10.37,2013-03-09 13:36:00,
2013-03-09 08:41:00,34.5,25.7,30.11,WNW,290,0.0,0.0,70,0.00,CLR,,0.00,WeatherDisplay:10.37,2013-03-09 13:41:00,
2013-03-09 08:46:00,35.2,26.1,30.11,WNW,290,0.0,0.0,69,0.00,CLR,,0.00,WeatherDisplay:10.37,2013-03-09 13:46:00,
2013-03-09 08:51:00,35.8,26.6,30.11,WNW,290,0.0,0.0,69,0.00,CLR,,0.00,WeatherDisplay:10.37,2013-03-09 13:51:00,
2013-03-09 08:56:00,37.0,27.5,30.11,WNW,290,0.0,0.0,68,0.00,CLR,,0.00,WeatherDisplay:10.37,2013-03-09 13:56:00,
2013-03-09 09:01:00,38.3,28.3,30.12,WNW,290,0.0,0.0,67,0.00,CLR,,0.00,WeatherDisplay:10.37,2013-03-09 14:01:00,
2013-03-09 09:06:00,39.0,28.6,30.12,WNW,290,0.0,0.0,66,0.00,CLR,,0.00,WeatherDisplay:10.37,2013-03-09 14:06:00,
2013-03-09 09:11:00,39.9,29.1,30.12,WNW,290,0.0,0.0,65,0.00,CLR,,0.00,WeatherDisplay:10.37,2013-03-09 14:11:00,
2013-03-09 09:16:00,40.3,29.1,30.12,WNW,290,0.0,0.0,64,0.00,CLR,,0.00,WeatherDisplay:10.37,2013-03-09 14:16:00,
2013-03-09 09:21:00,41.0,29.4,30.12,WNW,290,0.0,0.0,63,0.00,CLR,,0.00,WeatherDisplay:10.37,2013-03-09 14:21:00,
2013-03-09 09:26:00,42.1,30.0,30.12,WNW,290,0.0,0.0,62,0.00,CLR,,0.00,WeatherDisplay:10.37,2013-03-09 14:26:00,
2013-03-09 09:31:00,41.7,28.8,30.12,WNW,290,0.0,0.0,60,0.00,CLR,,0.00,WeatherDisplay:10.37,2013-03-09 14:31:00,
2013-03-09 09:36:00,40.8,28.0,30.12,WNW,290,0.0,0.0,60,0.00,CLR,,0.00,WeatherDisplay:10.37,2013-03-09 14:36:00,
2013-03-09 09:41:00,40.6,28.2,30.12,WNW,290,0.0,0.0,61,0.00,CLR,,0.00,WeatherDisplay:10.37,2013-03-09 14:41:00,
2013-03-09 09:46:00,41.7,28.8,30.12,WNW,290,0.0,0.0,60,0.00,CLR,,0.00,WeatherDisplay:10.37,2013-03-09 14:46:00,
2013-03-09 09:51:00,42.4,29.1,30.12,WNW,290,0.0,0.0,59,0.00,CLR,,0.00,WeatherDisplay:10.37,2013-03-09 14:51:00,
2013-03-09 09:56:00,43.5,29.7,30.12,WNW,290,0.0,0.0,58,0.00,CLR,,0.00,WeatherDisplay:10.37,2013-03-09 14:56:00,
2013-03-09 10:01:00,43.5,29.3,30.12,WNW,290,0.0,0.0,57,0.00,CLR,,0.00,WeatherDisplay:10.37,2013-03-09 15:01:00,
2013-03-09 10:06:00,44.1,29.8,30.12,WNW,290,0.0,0.0,57,0.00,CLR,,0.00,WeatherDisplay:10.37,2013-03-09 15:06:00,
2013-03-09 10:11:00,44.8,30.0,30.11,WNW,290,0.0,0.0,56,0.00,CLR,,0.00,WeatherDisplay:10.37,2013-03-09 15:11:00,
2013-03-09 10:16:00,45.3,30.1,30.11,WNW,290,0.0,0.0,55,0.00,CLR,,0.00,WeatherDisplay:10.37,2013-03-09 15:16:00,
2013-03-09 10:21:00,46.0,30.8,30.11,WNW,290,0.0,0.0,55,0.00,CLR,,0.00,WeatherDisplay:10.37,2013-03-09 15:21:00,
2013-03-09 10:26:00,45.1,29.5,30.11,WNW,290,0.0,0.0,54,0.00,CLR,,0.00,WeatherDisplay:10.37,2013-03-09 15:26:00,
2013-03-09 10:31:00,45.3,29.6,30.11,WNW,290,0.0,0.0,54,0.00,CLR,,0.00,WeatherDisplay:10.37,2013-03-09 15:31:00,
2013-03-09 10:36:00,45.7,29.0,30.11,WNW,290,0.0,0.0,52,0.00,CLR,,0.00,WeatherDisplay:10.37,2013-03-09 15:36:00,
2013-03-09 10:41:00,45.3,28.7,30.11,WNW,290,0.0,0.0,52,0.00,CLR,,0.00,WeatherDisplay:10.37,2013-03-09 15:41:00,
2013-03-09 10:46:00,45.1,29.0,30.11,WNW,290,0.0,0.0,53,0.00,CLR,,0.00,WeatherDisplay:10.37,2013-03-09 15:46:00,
2013-03-09 10:51:00,45.3,29.2,30.11,WNW,290,0.0,0.0,53,0.00,CLR,,0.00,WeatherDisplay:10.37,2013-03-09 15:51:00,
2013-03-09 10:56:00,45.7,29.5,30.11,WNW,290,0.0,0.0,53,0.00,CLR,,0.00,WeatherDisplay:10.37,2013-03-09 15:56:00,
2013-03-09 11:01:00,45.7,29.0,30.11,WNW,290,0.0,0.0,52,0.00,CLR,,0.00,WeatherDisplay:10.37,2013-03-09 16:01:00,
2013-03-09 11:06:00,46.2,29.1,30.11,WNW,290,0.0,0.0,51,0.00,CLR,,0.00,WeatherDisplay:10.37,2013-03-09 16:06:00,
2013-03-09 11:11:00,46.2,29.1,30.11,WNW,290,0.0,0.0,51,0.00,CLR,,0.00,WeatherDisplay:10.37,2013-03-09 16:11:00,
2013-03-09 11:16:00,45.5,27.9,30.11,WNW,290,0.0,0.0,50,0.00,CLR,,0.00,WeatherDisplay:10.37,2013-03-09 16:16:00,
2013-03-09 11:21:00,45.3,27.8,30.11,WNW,290,0.0,0.0,50,0.00,CLR,,0.00,WeatherDisplay:10.37,2013-03-09 16:21:00,
2013-03-09 11:26:00,45.3,27.8,30.11,WNW,290,0.0,0.0,50,0.00,CLR,,0.00,WeatherDisplay:10.37,2013-03-09 16:26:00,
2013-03-09 11:31:00,45.7,28.1,30.11,WNW,290,0.0,0.0,50,0.00,CLR,,0.00,WeatherDisplay:10.37,2013-03-09 16:31:00,
2013-03-09 11:36:00,46.2,28.1,30.11,WNW,290,0.0,0.0,49,0.00,CLR,,0.00,WeatherDisplay:10.37,2013-03-09 16:36:00,
2013-03-09 11:41:00,46.2,28.6,30.11,WNW,290,0.0,0.0,50,0.00,CLR,,0.00,WeatherDisplay:10.37,2013-03-09 16:41:00,
2013-03-09 11:46:00,46.0,27.9,30.11,WNW,290,0.0,0.0,49,0.00,CLR,,0.00,WeatherDisplay:10.37,2013-03-09 16:46:00,
2013-03-09 11:51:00,46.2,28.6,30.10,WNW,290,0.0,0.0,50,0.00,CLR,,0.00,WeatherDisplay:10.37,2013-03-09 16:51:00,
2013-03-09 11:56:00,46.9,28.8,30.10,WNW,290,0.0,0.0,49,0.00,CLR,,0.00,WeatherDisplay:10.37,2013-03-09 16:56:00,
2013-03-09 12:01:00,47.3,28.6,30.10,WNW,290,0.0,0.0,48,0.00,CLR,,0.00,WeatherDisplay:10.37,2013-03-09 17:01:00,
2013-03-09 12:31:00,49.3,29.4,30.09,WNW,290,0.0,0.0,46,0.00,CLR,,0.00,WeatherDisplay:10.37,2013-03-09 17:31:00,
2013-03-09 14:50:00,52.9,27.3,30.05,WNW,290,0.0,0.0,37,0.02,CLR,,0.02,WeatherDisplay:10.37,2013-03-09 19:50:00,
2013-03-09 15:21:00,52.7,29.0,30.05,North,0,0.0,0.0,40,0.02,CLR,,0.02,WeatherDisplay:10.37,2013-03-09 20:21:00,
2013-03-09 15:26:00,52.7,29.6,30.04,North,0,0.0,0.0,41,0.02,RA,,0.02,WeatherDisplay:10.37,2013-03-09 20:26:00,
2013-03-09 15:54:00,51.6,28.7,30.04,North,0,0.0,0.0,41,0.04,RA,,0.04,WeatherDisplay:10.37,2013-03-09 20:54:00,
2013-03-09 16:34:00,51.4,28.5,30.04,North,0,0.0,0.0,41,0.04,CLR,,0.06,WeatherDisplay:10.37,2013-03-09 21:34:00,
2013-03-09 16:39:00,51.3,28.3,30.04,North,0,0.0,0.0,41,0.04,RA,,0.06,WeatherDisplay:10.37,2013-03-09 21:39:00,
2013-03-09 16:44:00,51.1,28.2,30.03,North,0,0.0,0.0,41,0.06,RA,,0.08,WeatherDisplay:10.37,2013-03-09 21:44:00,
2013-03-09 17:11:00,50.9,28.0,30.02,North,0,0.0,0.0,41,0.04,RA,,0.10,WeatherDisplay:10.37,2013-03-09 22:11:00,
2013-03-09 17:16:00,50.7,27.8,30.02,North,0,0.0,0.0,41,0.04,RA,,0.10,WeatherDisplay:10.37,2013-03-09 22:16:00,
2013-03-09 17:21:00,50.4,27.5,30.02,North,0,0.0,0.0,41,0.04,CLR,,0.10,WeatherDisplay:10.37,2013-03-09 22:21:00,
2013-03-09 17:27:00,50.2,27.4,30.03,North,0,0.0,0.0,41,0.04,CLR,,0.10,WeatherDisplay:10.37,2013-03-09 22:27:00,
2013-03-09 17:32:00,49.8,26.4,30.03,North,0,0.0,0.0,40,0.04,CLR,,0.10,WeatherDisplay:10.37,2013-03-09 22:32:00,
2013-03-09 17:37:00,49.3,26.5,30.03,North,0,0.0,0.0,41,0.04,CLR,,0.10,WeatherDisplay:10.37,2013-03-09 22:37:00,
2013-03-09 17:42:00,48.9,26.2,30.03,North,0,0.0,0.0,41,0.02,CLR,,0.10,WeatherDisplay:10.37,2013-03-09 22:42:00,
2013-03-09 17:47:00,48.7,26.1,30.03,North,0,0.0,0.0,41,0.02,CLR,,0.10,WeatherDisplay:10.37,2013-03-09 22:47:00,
2013-03-09 17:52:00,48.6,25.9,30.03,North,0,0.0,0.0,41,0.02,CLR,,0.10,WeatherDisplay:10.37,2013-03-09 22:52:00,
2013-03-09 17:57:00,48.6,25.9,30.03,North,0,0.0,0.0,41,0.02,CLR,,0.10,WeatherDisplay:10.37,2013-03-09 22:57:00,
2013-03-09 18:02:00,48.2,26.2,30.03,North,0,0.0,0.0,42,0.02,CLR,,0.10,WeatherDisplay:10.37,2013-03-09 23:02:00,
2013-03-09 18:07:00,48.0,26.0,30.03,North,0,0.0,0.0,42,0.02,CLR,,0.10,WeatherDisplay:10.37,2013-03-09 23:07:00,
2013-03-09 18:13:00,47.7,25.7,30.03,North,0,0.0,0.0,42,0.00,CLR,,0.10,WeatherDisplay:10.37,2013-03-09 23:13:00,
2013-03-09 18:18:00,47.3,25.3,30.04,North,0,0.0,0.0,42,0.00,CLR,,0.10,WeatherDisplay:10.37,2013-03-09 23:18:00,
2013-03-09 18:23:00,47.1,25.7,30.04,North,0,0.0,0.0,43,0.00,CLR,,0.10,WeatherDisplay:10.37,2013-03-09 23:23:00,
2013-03-09 18:28:00,46.9,25.6,30.04,North,0,0.0,0.0,43,0.00,CLR,,0.10,WeatherDisplay:10.37,2013-03-09 23:28:00,
2013-03-09 19:42:00,43.9,23.4,30.04,North,0,0.0,0.0,44,0.00,CLR,,0.10,WeatherDisplay:10.37,2013-03-10 00:42:00,
2013-03-09 19:47:00,43.7,25.8,30.04,North,0,0.0,0.0,49,0.00,RA,,0.10,WeatherDisplay:10.37,2013-03-10 00:47:00,
2013-03-09 19:52:00,43.5,26.1,30.04,North,0,0.0,0.0,50,0.00,RA,,0.10,WeatherDisplay:10.37,2013-03-10 00:52:00,
2013-03-09 20:33:00,43.0,25.6,30.04,North,0,0.0,0.0,50,0.00,CLR,,0.10,WeatherDisplay:10.37,2013-03-10 01:33:00,
2013-03-09 20:38:00,42.6,25.3,30.04,North,0,0.0,0.0,50,0.00,CLR,,0.10,WeatherDisplay:10.37,2013-03-10 01:38:00,
2013-03-09 20:43:00,42.6,24.8,30.04,North,0,0.0,0.0,49,0.00,CLR,,0.10,WeatherDisplay:10.37,2013-03-10 01:43:00,
2013-03-09 20:49:00,42.6,24.8,30.05,North,0,0.0,0.0,49,0.00,CLR,,0.10,WeatherDisplay:10.37,2013-03-10 01:49:00,
2013-03-09 20:54:00,42.4,25.1,30.05,North,0,0.0,0.0,50,0.00,CLR,,0.10,WeatherDisplay:10.37,2013-03-10 01:54:00,
2013-03-09 20:59:00,42.1,24.8,30.05,North,0,0.0,0.0,50,0.00,CLR,,0.10,WeatherDisplay:10.37,2013-03-10 01:59:00,
2013-03-09 21:04:00,41.9,24.6,30.05,North,0,0.0,0.0,50,0.00,CLR,,0.10,WeatherDisplay:10.37,2013-03-10 02:04:00,
2013-03-09 21:09:00,41.7,24.9,30.05,North,0,0.0,0.0,51,0.00,CLR,,0.10,WeatherDisplay:10.37,2013-03-10 02:09:00,
2013-03-09 21:15:00,41.5,24.7,30.05,North,0,0.0,0.0,51,0.00,CLR,,0.10,WeatherDisplay:10.37,2013-03-10 02:15:00,
2013-03-09 21:49:00,40.6,23.9,30.05,North,0,0.0,0.0,51,0.00,CLR,,0.10,WeatherDisplay:10.37,2013-03-10 02:49:00,
2013-03-09 21:54:00,40.8,24.1,30.05,North,0,0.0,0.0,51,0.00,CLR,,0.10,WeatherDisplay:10.37,2013-03-10 02:54:00,
2013-03-09 21:59:00,40.8,24.1,30.05,North,0,0.0,0.0,51,0.00,CLR,,0.10,WeatherDisplay:10.37,2013-03-10 02:59:00,